Regional Weather Roundup
Issued by NWS

Home | Current Version | Previous Version | Text Only | Print | Product List | Glossary Off
Versions: 1 2 3 4 5 6 7 8 9 10 11 12 13 14 15 16 17 18 19 20 21 22 23 24 25 26 27 28 29 30 31 32 33 34 35 36 37 38 39 40 41 42 43 44 45 46 47 48 49 50

039
ASUS43 KTOP 301508
RWRKS

WEATHER ROUNDUP FOR KANSAS
NATIONAL WEATHER SERVICE GOODLAND KS
1000 AM CDT MON MAY 30 2016

NOTE:  "FAIR" INDICATES FEW OR NO CLOUDS BELOW 12,000 FEET WITH NO
SIGNIFICANT WEATHER AND/OR OBSTRUCTIONS TO VISIBILITY.

KSZ001>006-013>018-027>032-041>047-301600-
NORTHWEST KANSAS

CITY           SKY/WX    TMP DP  RH WIND       PRES   REMARKS
GOODLAND       SUNNY     66  53  63 S15       30.01F
HAYS           CLOUDY    63  52  67 E5        30.02S
HILL CITY      SUNNY     71  56  58 S9        30.02S
RUSSELL        CLOUDY    67  60  78 S6        30.01S
$$

KSZ061>065-074>080-084>089-301600-
SOUTHWEST KANSAS

CITY           SKY/WX    TMP DP  RH WIND       PRES   REMARKS
DODGE CITY     SUNNY     68  53  58 S14       30.06R
ELKHART          N/A     68  55  63 SW10        N/A
GARDEN CITY    SUNNY     66  53  63 S12       30.04S
GREAT BEND     CLOUDY    70  54  56 S5        30.03R
LIBERAL        SUNNY     66  55  68 S7        30.07S
PRATT          SUNNY     69  52  54 S9        30.05S
$$

KSZ066>073-081>083-090>101-301600-
SOUTHEAST KANSAS

CITY           SKY/WX    TMP DP  RH WIND       PRES   REMARKS
CHANUTE        CLOUDY    73  65  75 S6        30.05S
COFFEYVILLE    CLOUDY    72  65  78 SW6       30.07S
HUTCHINSON     SUNNY     74  60  61 CALM      30.04F
MEDICINE LODGE   N/A     73  55  53 S10       30.05R
NEWTON         SUNNY     72  55  56 SW7       30.07F
PARSONS        CLOUDY    72  65  78 S9        30.08R
WICHITA INTL   MOSUNNY   74  59  59 S9        30.04F
WICHITA JABRA  CLOUDY    73  58  59 S8        30.05R
WINFIELD       CLOUDY    73  62  68 S6        30.07R
$$

KSZ007>012-019>026-033>040-048>060-102>105-301600-
NORTHEAST KANSAS

CITY           SKY/WX    TMP DP  RH WIND       PRES   REMARKS
CONCORDIA      SUNNY     73  60  63 S8        30.01F
EMPORIA        CLOUDY    73  64  73 SW10      30.05S
LAWRENCE       SUNNY     76  67  73 SE7       30.04R
MANHATTAN      SUNNY     75  64  68 S6        30.02S
MARYSVILLE     SUNNY     75  64  69 S8        30.01F
OLATHE IND     CLOUDY    75  66  73 S6        30.05F
OLATHE EXE     CLOUDY    74  67  78 S6        30.05F
SALINA         SUNNY     75  61  61 SE9       30.02S
TOPEKA BILLARD   N/A     77  65  66 S3        30.03R
TOPEKA FORBES  SUNNY     78  66  66 S7        30.04R
$$




USA.gov is the U.S. government's official web portal to all federal, state and local government web resources and services.